GW3733 Weather Reports


Display with metric or nautical units.
time (UTC)temp
F
wind
direction
speed
MPH
gust
MPH
rain 1hr
in
rain 24hr
in
rain mn
in
humidity
%
barometer
mb
20260901174322 87 333 0.0 0.0 0.00 0.00 0.00 74 1013.5
20260901173817 87 357 0.0 0.0 0.00 0.00 0.00 72 1013.7
20260901173312 86 355 0.0 0.0 0.00 0.00 0.00 70 1013.5
20260901172809 86 340 0.0 0.0 0.00 0.00 0.00 73 1013.6
20260901172308 86 304 0.0 0.0 0.00 0.00 0.00 72 1013.4
20260901171806 87 351 0.0 0.0 0.00 0.00 0.00 72 1013.3
20260901171305 87 351 0.0 0.0 0.00 0.00 0.00 70 1013.3
20260901170805 88 355 0.0 0.0 0.00 0.00 0.00 67 1013.5
20260901170259 89 2 0.0 0.0 0.00 0.00 0.00 67 1013.6
20260901165757 89 309 0.0 0.0 0.00 0.00 0.00 68 1013.5
20260901165252 88 330 0.0 0.0 0.00 0.00 0.00 72 1013.4
20260901164749 89 343 0.0 0.0 0.00 0.00 0.00 67 1013.9
20260901164244 88 347 0.0 0.0 0.00 0.00 0.00 73 1014.0
20260901163739 88 348 0.0 0.0 0.00 0.00 0.00 70 1014.0
20260901163239 89 58 0.0 0.0 0.00 0.00 0.00 66 1013.9
20260901162734 89 354 0.0 0.0 0.00 0.00 0.00 68 1013.9
20260901162233 88 73 0.0 0.0 0.00 0.00 0.00 71 1013.6
20260901161732 88 307 0.0 0.0 0.00 0.00 0.00 68 1013.7
20260901161227 88 8 0.0 0.0 0.00 0.00 0.00 70 1013.7
20260901160723 88 323 0.0 0.0 0.00 0.00 0.00 73 1013.7
20260901160219 87 344 0.0 0.0 0.00 0.00 0.00 73 1014.1
20260901155717 85 352 0.0 0.0 0.00 0.00 0.00 81 1014.3
20260901155212 85 161 0.0 0.0 0.00 0.00 0.00 75 1014.2
20260901154708 85 331 0.0 0.0 0.00 0.00 0.00 77 1014.2
20260901154202 86 347 0.0 0.0 0.00 0.00 0.00 74 1014.2
20260901153657 86 329 0.0 0.0 0.00 0.00 0.00 76 1014.2
20260901153151 87 307 0.0 0.0 0.00 0.00 0.00 70 1014.1
20260901152646 89 242 0.0 0.0 0.00 0.00 0.00 71 1014.1
20260901152144 88 349 0.0 0.0 0.00 0.00 0.00 72 1014.1
20260901151641 87 26 0.0 0.0 0.00 0.00 0.00 74 1014.2
20260901151140 86 4 0.0 0.0 0.00 0.00 0.00 73 1014.3
20260901150639 86 70 0.0 0.0 0.00 0.00 0.00 72 1014.0
20260901150138 85 357 0.0 0.0 0.00 0.00 0.00 81 1014.2
20260901145636 84 2 0.0 0.0 0.00 0.00 0.00 82 1014.3
20260901145135 83 344 0.0 0.0 0.00 0.00 0.00 83 1014.3
20260901144631 82 352 0.0 0.0 0.00 0.00 0.00 85 1014.1
20260901144126 83 338 0.0 0.0 0.00 0.00 0.00 82 1014.3
20260901143621 83 7 0.0 0.0 0.00 0.00 0.00 82 1014.2
20260901143118 83 355 0.0 0.0 0.00 0.00 0.00 85 1014.4
20260901142613 83 333 0.0 0.0 0.00 0.00 0.00 83 1014.2
20260901142107 84 2 0.0 0.0 0.00 0.00 0.00 82 1014.2
20260901141602 85 2 0.0 0.0 0.00 0.00 0.00 79 1014.3
20260901141057 84 136 0.0 0.0 0.00 0.00 0.00 80 1014.3
20260901140555 84 206 0.0 0.0 0.00 0.00 0.00 80 1014.4
20260901140049 84 14 0.0 0.0 0.00 0.00 0.00 82 1014.5
20260901135548 82 19 0.0 0.0 0.00 0.00 0.00 83 1014.4
20260901135045 81 351 0.0 0.0 0.00 0.00 0.00 84 1014.6
20260901134541 80 328 0.0 0.0 0.00 0.00 0.00 86 1014.5
20260901134040 81 64 0.0 0.0 0.00 0.00 0.00 84 1014.7
20260901133534 81 347 0.0 0.0 0.00 0.00 0.00 87 1014.7
20260901133032 80 48 0.0 0.0 0.00 0.00 0.00 85 1014.6
20260901132527 78 84 0.0 0.0 0.00 0.00 0.00 89 1014.7
20260901132026 78 109 0.0 0.0 0.00 0.00 0.00 91 1014.4
20260901131521 76 1 0.0 0.0 0.00 0.00 0.00 94 1014.7
20260901131016 74 355 0.0 0.0 0.00 0.00 0.00 96 1014.7
20260901130511 73 354 0.0 0.0 0.00 0.00 0.00 99 1014.6
20260901130010 72 354 0.0 0.0 0.00 0.00 0.00 99 1014.7
20260901125508 72 354 0.0 0.0 0.00 0.00 0.00 99 1014.8
20260901125003 71 354 0.0 0.0 0.00 0.00 0.00 99 1014.7
20260901124458 71 354 0.0 0.0 0.00 0.00 0.00 99 1014.9
20260901123953 71 354 0.0 0.0 0.00 0.00 0.00 99 1014.8
20260901123448 70 354 0.0 0.0 0.00 0.00 0.00 99 1014.9
20260901122946 70 354 0.0 0.0 0.00 0.00 0.00 99 1014.9
20260901122445 69 354 0.0 0.0 0.00 0.00 0.00 99 1015.0
20260901121945 69 354 0.0 0.0 0.00 0.00 0.00 99 1015.2
20260901121440 68 354 0.0 0.0 0.00 0.00 0.00 99 1014.9
20260901120935 68 354 0.0 0.0 0.00 0.00 0.00 99 1015.2
20260901120429 68 354 0.0 0.0 0.00 0.00 0.00 99 1014.9
20260901115925 68 354 0.0 0.0 0.00 0.00 0.00 99 1015.0
20260901115424 67 353 0.0 0.0 0.00 0.00 0.00 99 1014.8
20260901114922 67 353 0.0 0.0 0.00 0.00 0.00 99 1014.8
20260901114418 67 353 0.0 0.0 0.00 0.00 0.00 99 1015.0
20260901113916 67 354 0.0 0.0 0.00 0.00 0.00 99 1014.8
20260901113415 67 353 0.0 0.0 0.00 0.00 0.00 99 1014.6
20260901112910 67 353 0.0 0.0 0.00 0.00 0.00 99 1014.6
20260901112405 66 353 0.0 0.0 0.00 0.00 0.00 99 1014.6
20260901111900 66 353 0.0 0.0 0.00 0.00 0.00 99 1014.6
20260901111358 66 352 0.0 0.0 0.00 0.00 0.00 99 1014.7
20260901110857 66 352 0.0 0.0 0.00 0.00 0.00 99 1014.6
20260901110353 66 352 0.0 0.0 0.00 0.00 0.00 99 1014.6
20260901105849 66 352 0.0 0.0 0.00 0.00 0.00 99 1014.3
20260901105344 66 352 0.0 0.0 0.00 0.00 0.00 99 1014.5
20260901104840 66 352 0.0 0.0 0.00 0.00 0.00 99 1014.4
20260901104335 66 352 0.0 0.0 0.00 0.00 0.00 99 1014.2
20260901103830 66 352 0.0 0.0 0.00 0.00 0.00 99 1014.2
20260901103324 66 352 0.0 0.0 0.00 0.00 0.00 99 1014.1
20260901102820 66 352 0.0 0.0 0.00 0.00 0.00 99 1014.1
20260901102320 66 352 0.0 0.0 0.00 0.00 0.00 99 1014.1
20260901101815 67 352 0.0 0.0 0.00 0.00 0.00 99 1014.0
20260901101310 67 352 0.0 0.0 0.00 0.00 0.00 99 1014.1
20260901100809 67 352 0.0 0.0 0.00 0.00 0.00 99 1014.1
20260901100304 67 352 0.0 0.0 0.00 0.00 0.00 99 1014.4
20260901095803 67 352 0.0 0.0 0.00 0.00 0.00 99 1014.2
20260901095300 67 352 0.0 0.0 0.00 0.00 0.00 99 1014.5
20260901094754 67 352 0.0 0.0 0.00 0.00 0.00 99 1014.2
20260901094249 67 352 0.0 0.0 0.00 0.00 0.00 99 1014.0
20260901093745 67 352 0.0 0.0 0.00 0.00 0.00 99 1014.1
20260901093243 68 352 0.0 0.0 0.00 0.00 0.00 99 1014.1
20260901092740 68 352 0.0 0.0 0.00 0.00 0.00 99 1013.9
20260901092235 68 352 0.0 0.0 0.00 0.00 0.00 99 1014.1
20260901091731 68 352 0.0 0.0 0.00 0.00 0.00 99 1014.2
20260901091226 68 353 0.0 0.0 0.00 0.00 0.00 99 1014.0
20260901090721 68 352 0.0 0.0 0.00 0.00 0.00 99 1014.2
20260901090216 68 352 0.0 0.0 0.00 0.00 0.00 99 1013.9
20260901085712 68 352 0.0 0.0 0.00 0.00 0.00 99 1014.1
20260901085207 68 352 0.0 0.0 0.00 0.00 0.00 99 1014.1
20260901084704 68 352 0.0 0.0 0.00 0.00 0.00 99 1014.1
20260901084159 68 353 0.0 0.0 0.00 0.00 0.00 99 1014.0
20260901083653 68 352 0.0 0.0 0.00 0.00 0.00 99 1013.9
20260901083152 68 353 0.0 0.0 0.00 0.00 0.00 99 1014.0
20260901082646 67 352 0.0 0.0 0.00 0.00 0.00 99 1014.1
20260901082142 67 353 0.0 0.0 0.00 0.00 0.00 99 1014.3
20260901081637 67 352 0.0 0.0 0.00 0.00 0.00 99 1014.0
20260901081131 67 352 0.0 0.0 0.00 0.00 0.00 99 1014.2
20260901080631 67 353 0.0 0.0 0.00 0.00 0.00 99 1014.2
20260901080130 67 353 0.0 0.0 0.00 0.00 0.00 99 1014.2
20260901075626 67 353 0.0 0.0 0.00 0.00 0.00 99 1014.3
20260901075125 67 352 0.0 0.0 0.00 0.00 0.00 99 1014.2
20260901074625 67 353 0.0 0.0 0.00 0.00 0.00 99 1014.4
20260901074120 67 353 0.0 0.0 0.00 0.00 0.00 99 1014.2
20260901073616 67 353 0.0 0.0 0.00 0.00 0.00 99 1014.2
20260901073111 67 353 0.0 0.0 0.00 0.00 0.00 99 1014.2
20260901072607 67 353 0.0 0.0 0.00 0.00 0.00 99 1014.2
20260901072101 67 352 0.0 0.0 0.00 0.00 0.00 99 1014.4
20260901071556 67 353 0.0 0.0 0.00 0.00 0.00 99 1014.3
20260901071055 67 353 0.0 0.0 0.00 0.00 0.00 99 1014.2
20260901070549 66 353 0.0 0.0 0.00 0.00 0.00 99 1014.2
20260901070045 66 353 0.0 0.0 0.00 0.00 0.00 99 1014.3
20260901065539 66 352 0.0 0.0 0.00 0.00 0.00 99 1014.6
20260901065034 66 353 0.0 0.0 0.00 0.00 0.00 99 1014.4
20260901064531 66 353 0.0 0.0 0.00 0.00 0.00 99 1014.4
20260901064027 66 353 0.0 0.0 0.00 0.00 0.00 99 1014.6
20260901063524 66 353 0.0 0.0 0.00 0.00 0.00 99 1014.6
20260901063020 66 353 0.0 0.0 0.00 0.00 0.00 99 1014.5
20260901062515 67 353 0.0 0.0 0.00 0.00 0.00 99 1014.6
20260901062011 67 353 0.0 0.0 0.00 0.00 0.00 99 1014.5
20260901061507 67 352 0.0 0.0 0.00 0.00 0.00 99 1014.7
20260901061006 67 353 0.0 0.0 0.00 0.00 0.00 99 1014.7
20260901060456 68 352 0.0 0.0 0.00 0.00 0.00 99 1014.9
20260901055955 68 352 0.0 0.0 0.00 0.00 0.00 99 1014.7
20260901055452 68 352 0.0 0.0 0.00 0.00 0.00 99 1014.9
20260901054949 67 353 0.0 0.0 0.00 0.00 0.00 99 1014.8
20260901054446 67 352 0.0 0.0 0.00 0.00 0.00 99 1015.0
20260901053941 67 353 0.0 0.0 0.00 0.00 0.00 99 1014.9
20260901053436 67 353 0.0 0.0 0.00 0.00 0.00 99 1014.9
20260901052932 67 353 0.0 0.0 0.00 0.00 0.00 99 1015.2
20260901052427 67 353 0.0 0.0 0.00 0.00 0.00 99 1015.1
20260901051925 67 352 0.0 0.0 0.00 0.00 0.00 99 1015.1
20260901051422 68 353 0.0 0.0 0.00 0.00 0.00 99 1015.3
20260901050916 68 353 0.0 0.0 0.00 0.00 0.00 99 1015.1
20260901050412 68 352 0.0 0.0 0.00 0.00 0.00 99 1015.1
20260901045911 68 352 0.0 0.0 0.00 0.00 0.00 99 1015.3
20260901045406 68 352 0.0 0.0 0.00 0.00 0.00 99 1015.3
20260901044901 68 352 0.0 0.0 0.00 0.00 0.00 99 1014.9
20260901044357 69 353 0.0 0.0 0.00 0.00 0.00 99 1015.5
20260901043852 69 352 0.0 0.0 0.00 0.00 0.00 99 1015.1
20260901043348 69 352 0.0 0.0 0.00 0.00 0.00 99 1015.1
20260901042843 69 353 0.0 0.0 0.00 0.00 0.00 99 1015.2
20260901042337 69 352 0.0 0.0 0.00 0.00 0.00 99 1015.4
20260901041833 69 353 0.0 0.0 0.00 0.00 0.00 99 1015.2
20260901041328 69 353 0.0 0.0 0.00 0.00 0.00 99 1015.4
20260901040827 69 353 0.0 0.0 0.00 0.00 0.00 99 1015.3
20260901040327 69 353 0.0 0.0 0.00 0.00 0.00 99 1015.4
20260901035821 69 352 0.0 0.0 0.00 0.00 0.00 99 1015.4
20260901035320 69 353 0.0 0.0 0.00 0.00 0.00 99 1015.3
20260901034818 69 353 0.0 0.0 0.00 0.00 0.00 99 1015.5
20260901034314 69 352 0.0 0.0 0.00 0.00 0.00 99 1015.4
20260901033813 69 353 0.0 0.0 0.00 0.00 0.00 99 1015.6
20260901033312 69 353 0.0 0.0 0.00 0.00 0.00 99 1015.4
20260901032806 69 353 0.0 0.0 0.00 0.00 0.00 99 1015.6
20260901032306 69 353 0.0 0.0 0.00 0.00 0.00 99 1015.6
20260901031801 69 353 0.0 0.0 0.00 0.00 0.00 99 1015.7
20260901031257 69 353 0.0 0.0 0.00 0.00 0.00 99 1015.6
20260901030756 69 353 0.0 0.0 0.00 0.00 0.00 99 1015.8
20260901030256 69 353 0.0 0.0 0.00 0.00 0.00 99 1015.8
20260901025751 69 353 0.0 0.0 0.00 0.00 0.00 99 1015.8
20260901025246 68 353 0.0 0.0 0.00 0.00 0.00 99 1015.5
20260901024741 68 353 0.0 0.0 0.00 0.00 0.00 99 1015.8
20260901024240 68 353 0.0 0.0 0.00 0.00 0.00 99 1015.8
20260901023738 68 353 0.0 0.0 0.00 0.00 0.00 99 1015.7
20260901023233 68 353 0.0 0.0 0.00 0.00 0.00 99 1015.6
20260901022729 68 354 0.0 0.0 0.00 0.00 0.00 99 1015.8
20260901022224 68 354 0.0 0.0 0.00 0.00 0.00 99 1015.9
20260901021719 68 354 0.0 0.0 0.00 0.00 0.00 99 1015.8
20260901021215 68 354 0.0 0.0 0.00 0.00 0.00 99 1015.8
20260901020710 68 354 0.0 0.0 0.00 0.00 0.00 99 1015.7
20260901020205 68 354 0.0 0.0 0.00 0.00 0.00 99 1015.8
20260901015705 68 354 0.0 0.0 0.00 0.00 0.00 99 1015.9
20260901015200 68 354 0.0 0.0 0.00 0.00 0.00 99 1015.7
20260901014655 68 354 0.0 0.0 0.00 0.00 0.00 99 1015.7
20260901014151 69 354 0.0 0.0 0.00 0.00 0.00 99 1015.8
20260901013647 69 354 0.0 0.0 0.00 0.00 0.00 99 1015.6
20260901013142 69 354 0.0 0.0 0.00 0.00 0.00 99 1015.5
20260901012637 69 354 0.0 0.0 0.00 0.00 0.00 99 1015.5
20260901012132 69 354 0.0 0.0 0.00 0.00 0.00 99 1015.4
20260901011628 69 354 0.0 0.0 0.00 0.00 0.00 99 1015.0
20260901011127 69 354 0.0 0.0 0.00 0.00 0.00 99 1015.0
20260901010621 69 354 0.0 0.0 0.00 0.00 0.00 99 1015.2
20260901010120 69 354 0.0 0.0 0.00 0.00 0.00 99 1015.2
20260901005615 70 354 0.0 0.0 0.00 0.00 0.00 99 1015.2
20260901005110 70 354 0.0 0.0 0.00 0.00 0.00 99 1015.0
20260901004609 70 354 0.0 0.0 0.00 0.00 0.00 99 1014.9
20260901004105 70 354 0.0 0.0 0.00 0.00 0.00 99 1014.7
20260901003559 71 354 0.0 0.0 0.00 0.00 0.00 99 1015.0
20260901003058 71 354 0.0 0.0 0.00 0.00 0.00 99 1014.7
20260901002552 71 354 0.0 0.0 0.00 0.00 0.00 99 1015.0
20260901002047 71 354 0.0 0.0 0.00 0.00 0.00 99 1014.7
20260901001542 72 354 0.0 0.0 0.00 0.00 0.00 99 1014.9
20260901001037 72 354 0.0 0.0 0.00 0.00 0.00 99 1015.0
20260901000532 72 354 0.0 0.0 0.00 0.00 0.00 99 1014.9
20260901000028 73 354 0.0 0.0 0.00 0.00 0.00 99 1015.2
20260831235521 73 354 0.0 0.0 0.00 0.00 0.00 99 1015.1
20260831235017 74 354 0.0 0.0 0.00 0.00 0.00 99 1014.9
20260831234511 74 354 0.0 0.0 0.00 0.00 0.00 98 1015.0
20260831234007 75 354 0.0 0.0 0.00 0.00 0.00 98 1015.0
20260831233501 75 354 0.0 0.0 0.00 0.00 0.00 98 1014.9
20260831232957 76 354 0.0 0.0 0.00 0.00 0.00 98 1015.1
20260831232452 76 354 0.0 0.0 0.00 0.00 0.00 97 1015.1
20260831231948 76 354 0.0 0.0 0.00 0.00 0.00 97 1014.9
20260831231445 77 354 0.0 0.0 0.00 0.00 0.00 96 1015.0
20260831230940 77 354 0.0 0.0 0.00 0.00 0.00 96 1015.2
20260831230434 77 354 0.0 0.0 0.00 0.00 0.00 96 1015.1
20260831225929 77 354 0.0 0.0 0.00 0.00 0.00 96 1015.1
20260831225425 77 354 0.0 0.0 0.00 0.00 0.00 95 1015.1
20260831224920 78 354 0.0 0.0 0.00 0.00 0.00 95 1015.2
20260831224419 78 354 0.0 0.0 0.00 0.00 0.00 95 1015.0
20260831223914 78 354 0.0 0.0 0.00 0.00 0.00 94 1015.1
20260831223410 78 354 0.0 0.0 0.00 0.00 0.00 94 1015.1
20260831222907 78 354 0.0 0.0 0.00 0.00 0.00 93 1014.7
20260831222402 79 354 0.0 0.0 0.00 0.00 0.00 92 1014.9
20260831221857 79 354 0.0 0.0 0.00 0.00 0.00 92 1015.3
20260831221353 79 354 0.0 0.0 0.00 0.00 0.00 91 1015.2
20260831220848 79 354 0.0 0.0 0.00 0.00 0.00 89 1015.2
20260831220343 78 354 0.0 0.0 0.00 0.00 0.00 92 1015.4
20260831215838 78 354 0.0 0.0 0.00 0.00 0.00 93 1015.4
20260831215334 79 354 0.0 0.0 0.00 0.00 0.00 92 1015.2
20260831214830 79 354 0.0 0.0 0.00 0.00 0.00 91 1015.3
20260831214327 79 354 0.0 0.0 0.00 0.00 0.00 92 1015.5
20260831213822 79 354 0.0 0.0 0.00 0.00 0.00 91 1015.4
20260831213319 79 354 0.0 0.0 0.00 0.00 0.00 91 1015.5
20260831212814 79 353 0.0 0.0 0.00 0.00 0.00 91 1015.6
20260831212311 80 354 0.0 0.0 0.00 0.00 0.00 90 1015.2
20260831211809 80 354 0.0 0.0 0.00 0.00 0.00 91 1015.5
20260831211304 80 354 0.0 0.0 0.00 0.00 0.00 89 1015.5
20260831210758 80 354 0.0 0.0 0.00 0.00 0.00 88 1015.5
20260831210255 81 357 0.0 0.0 0.00 0.00 0.00 87 1015.4
20260831205754 81 358 0.0 0.0 0.00 0.00 0.00 86 1015.5
20260831205250 81 356 0.0 0.0 0.00 0.00 0.00 84 1015.5
20260831204749 81 0 0.0 0.0 0.00 0.00 0.00 83 1015.6
20260831204249 81 346 0.0 0.0 0.00 0.00 0.00 88 1015.5
20260831203743 81 0 0.0 0.0 0.00 0.00 0.00 85 1015.5
20260831203238 81 15 0.0 0.0 0.00 0.00 0.00 87 1015.6
20260831202736 80 17 0.0 0.0 0.00 0.00 0.00 86 1015.8
20260831202231 80 10 0.0 0.0 0.00 0.00 0.00 89 1015.7
20260831201731 79 10 0.0 0.0 0.00 0.00 0.00 90 1015.8
20260831201224 79 10 0.0 0.0 0.00 0.00 0.00 88 1016.0
20260831200720 79 10 0.0 0.0 0.00 0.00 0.00 92 1015.8
20260831200214 79 10 0.0 0.0 0.00 0.00 0.00 91 1015.7
20260831195710 79 10 0.0 0.0 0.00 0.00 0.00 91 1016.1
20260831195205 78 10 0.0 0.0 0.00 0.00 0.00 91 1016.1
20260831194654 79 10 0.0 0.0 0.00 0.00 0.00 91 1016.1
20260831194149 79 10 0.0 0.0 0.00 0.00 0.00 89 1016.0
20260831193644 80 10 0.0 0.0 0.00 0.00 0.00 87 1016.0
20260831193139 80 17 0.0 0.0 0.00 0.00 0.00 87 1015.9
20260831192634 81 17 0.0 0.0 0.00 0.00 0.00 86 1016.1
20260831192130 80 16 0.0 0.0 0.00 0.00 0.00 83 1016.1
20260831191626 80 348 0.0 0.0 0.00 0.00 0.00 83 1016.1
20260831191121 80 348 0.0 0.0 0.00 0.00 0.00 83 1016.2
20260831190616 80 352 0.0 0.0 0.00 0.00 0.00 85 1016.4
20260831190114 80 356 0.0 0.0 0.00 0.00 0.00 85 1016.1
20260831185605 80 52 0.0 0.0 0.00 0.00 0.00 82 1016.4
20260831185100 80 5 0.0 0.0 0.00 0.00 0.00 87 1016.6
20260831184554 80 352 0.0 0.0 0.00 0.00 0.00 85 1016.6
20260831184049 81 347 0.0 0.0 0.00 0.00 0.00 85 1016.4
20260831183548 80 353 0.0 0.0 0.00 0.00 0.00 81 1016.4
20260831183042 80 7 0.0 0.0 0.00 0.00 0.00 81 1016.3
20260831182537 80 15 0.0 0.0 0.00 0.00 0.00 87 1016.6
20260831182032 79 15 0.0 0.0 0.00 0.00 0.00 85 1016.6
20260831181527 79 11 0.0 0.0 0.00 0.00 0.00 83 1016.6
20260831181026 79 11 0.0 0.0 0.00 0.00 0.00 87 1016.5
20260831180521 79 11 0.0 0.0 0.00 0.00 0.00 84 1016.7
20260831180017 78 11 0.0 0.0 0.00 0.00 0.00 89 1016.7
20260831175512 79 11 0.0 0.0 0.00 0.00 0.00 88 1016.7
20260831175009 79 11 0.0 0.0 0.00 0.00 0.00 86 1016.9
20260831174508 78 11 0.0 0.0 0.00 0.00 0.00 89 1016.6